Year,Month,Day,Hour,Minute,Value (Times are PST for temperature in C)
2013,09,23,00,00,11.30
2013,09,23,00,01,11.30
2013,09,23,00,02,11.30
2013,09,23,00,03,11.30
2013,09,23,00,04,11.30
2013,09,23,00,05,11.30
2013,09,23,00,06,11.40
2013,09,23,00,07,11.40
2013,09,23,00,08,11.40
2013,09,23,00,09,11.40
2013,09,23,00,10,11.40
2013,09,23,00,11,11.40
2013,09,23,00,12,11.40
2013,09,23,00,13,11.30
2013,09,23,00,14,11.30
2013,09,23,00,15,11.30
2013,09,23,00,16,11.30
2013,09,23,00,17,11.30
2013,09,23,00,18,11.30
2013,09,23,00,19,11.30
2013,09,23,00,20,11.30
2013,09,23,00,21,11.30
2013,09,23,00,22,11.30
2013,09,23,00,23,11.30
2013,09,23,00,24,11.30
2013,09,23,00,25,11.30
2013,09,23,00,26,11.30
2013,09,23,00,27,11.30
2013,09,23,00,28,11.30
2013,09,23,00,29,11.30
2013,09,23,00,30,11.30
2013,09,23,00,31,11.30
2013,09,23,00,32,11.30
2013,09,23,00,33,11.30
2013,09,23,00,34,11.20
2013,09,23,00,35,11.20
2013,09,23,00,36,11.20
2013,09,23,00,37,11.20
2013,09,23,00,38,11.20
2013,09,23,00,39,11.20
2013,09,23,00,40,11.20
2013,09,23,00,41,11.10
2013,09,23,00,42,11.10
2013,09,23,00,43,11.10
2013,09,23,00,44,11.10
2013,09,23,00,45,11.10
2013,09,23,00,46,11.10
2013,09,23,00,47,11.10
2013,09,23,00,48,11.10
2013,09,23,00,49,11.10
2013,09,23,00,50,11.10
2013,09,23,00,51,11.00
2013,09,23,00,52,10.90
2013,09,23,00,53,10.90
2013,09,23,00,54,10.90
2013,09,23,00,55,10.90
2013,09,23,00,56,10.90
2013,09,23,00,57,10.90
2013,09,23,00,58,10.90
2013,09,23,00,59,10.90
2013,09,23,01,00,10.80
2013,09,23,01,01,10.80
2013,09,23,01,02,10.80
2013,09,23,01,03,10.80
2013,09,23,01,04,10.70
2013,09,23,01,05,10.70
2013,09,23,01,06,10.70
2013,09,23,01,07,10.70
2013,09,23,01,08,10.70
2013,09,23,01,09,10.60
2013,09,23,01,10,10.60
2013,09,23,01,11,10.60
2013,09,23,01,12,10.60
2013,09,23,01,13,10.60
2013,09,23,01,14,10.60
2013,09,23,01,15,10.60
2013,09,23,01,16,10.60
2013,09,23,01,17,10.60
2013,09,23,01,18,10.50
2013,09,23,01,19,10.40
2013,09,23,01,20,10.40
2013,09,23,01,21,10.40
2013,09,23,01,22,10.40
2013,09,23,01,23,10.40
2013,09,23,01,24,10.40
2013,09,23,01,25,10.40
2013,09,23,01,26,10.40
2013,09,23,01,27,10.40
2013,09,23,01,28,10.40
2013,09,23,01,29,10.40
2013,09,23,01,30,10.40
2013,09,23,01,31,10.40
2013,09,23,01,32,10.40
2013,09,23,01,33,10.40
2013,09,23,01,34,10.40
2013,09,23,01,35,10.40
2013,09,23,01,36,10.40
2013,09,23,01,37,10.40
2013,09,23,01,38,10.40
2013,09,23,01,39,10.40
2013,09,23,01,40,10.40
2013,09,23,01,41,10.40
2013,09,23,01,42,10.40
2013,09,23,01,43,10.40
2013,09,23,01,44,10.40
2013,09,23,01,45,10.40
2013,09,23,01,46,10.40
2013,09,23,01,47,10.40
2013,09,23,01,48,10.40
2013,09,23,01,49,10.60
2013,09,23,01,50,10.60
2013,09,23,01,51,10.60
2013,09,23,01,52,10.60
2013,09,23,01,53,10.60
2013,09,23,01,54,10.60
2013,09,23,01,55,10.60
2013,09,23,01,56,10.60
2013,09,23,01,57,10.60
2013,09,23,01,58,10.60
2013,09,23,01,59,10.60
2013,09,23,02,00,10.70
2013,09,23,02,01,10.70
2013,09,23,02,02,10.70
2013,09,23,02,03,10.70
2013,09,23,02,04,10.70
2013,09,23,02,05,10.80
2013,09,23,02,06,10.80
2013,09,23,02,07,10.80
2013,09,23,02,08,10.80
2013,09,23,02,09,10.80
2013,09,23,02,10,10.80
2013,09,23,02,11,10.80
2013,09,23,02,12,10.90
2013,09,23,02,13,10.90
2013,09,23,02,14,10.90
2013,09,23,02,15,10.90
2013,09,23,02,16,10.90
2013,09,23,02,17,10.90
2013,09,23,02,18,10.90
2013,09,23,02,19,10.90
2013,09,23,02,20,10.90
2013,09,23,02,21,10.90
2013,09,23,02,22,10.90
2013,09,23,02,23,11.00
2013,09,23,02,24,11.10
2013,09,23,02,25,11.10
2013,09,23,02,26,11.10
2013,09,23,02,27,11.10
2013,09,23,02,28,11.10
2013,09,23,02,29,11.10
2013,09,23,02,30,11.10
2013,09,23,02,31,11.10
2013,09,23,02,32,11.10
2013,09,23,02,33,11.10
2013,09,23,02,34,11.10
2013,09,23,02,35,11.10
2013,09,23,02,36,11.10
2013,09,23,02,37,11.10
2013,09,23,02,38,11.10
2013,09,23,02,39,11.10
2013,09,23,02,40,11.10
2013,09,23,02,41,11.10
2013,09,23,02,42,11.10
2013,09,23,02,43,11.10
2013,09,23,02,44,11.10
2013,09,23,02,45,11.10
2013,09,23,02,46,11.10
2013,09,23,02,47,11.10
2013,09,23,02,48,11.10
2013,09,23,02,49,11.10
2013,09,23,02,50,11.10
2013,09,23,02,51,11.10
2013,09,23,02,52,11.10
2013,09,23,02,53,11.10
2013,09,23,02,54,11.10
2013,09,23,02,55,11.20
2013,09,23,02,56,11.20
2013,09,23,02,57,11.20
2013,09,23,02,58,11.20
2013,09,23,02,59,11.30
2013,09,23,03,00,11.30
2013,09,23,03,01,11.30
2013,09,23,03,02,11.30
2013,09,23,03,03,11.40
2013,09,23,03,04,11.40
2013,09,23,03,05,11.40
2013,09,23,03,06,11.40
2013,09,23,03,07,11.40
2013,09,23,03,08,11.40
2013,09,23,03,09,11.40
2013,09,23,03,10,11.40
2013,09,23,03,11,11.40
2013,09,23,03,12,11.40
2013,09,23,03,13,11.40
2013,09,23,03,14,11.40
2013,09,23,03,15,11.40
2013,09,23,03,16,11.40
2013,09,23,03,17,11.40
2013,09,23,03,18,11.40
2013,09,23,03,19,11.40
2013,09,23,03,20,11.40
2013,09,23,03,21,11.30
2013,09,23,03,22,11.30
2013,09,23,03,23,11.30
2013,09,23,03,24,11.30
2013,09,23,03,25,11.20
2013,09,23,03,26,11.20
2013,09,23,03,27,11.20
2013,09,23,03,28,11.10
2013,09,23,03,29,11.10
2013,09,23,03,30,11.10
2013,09,23,03,31,11.10
2013,09,23,03,32,11.10
2013,09,23,03,33,11.00
2013,09,23,03,34,10.90
2013,09,23,03,35,10.90
2013,09,23,03,36,10.90
2013,09,23,03,37,10.90
2013,09,23,03,38,10.90
2013,09,23,03,39,10.90
2013,09,23,03,40,10.90
2013,09,23,03,41,10.90
2013,09,23,03,42,10.90
2013,09,23,03,43,10.90
2013,09,23,03,44,10.90
2013,09,23,03,45,10.90
2013,09,23,03,46,10.90
2013,09,23,03,47,10.90
2013,09,23,03,48,10.90
2013,09,23,03,49,10.90
2013,09,23,03,50,10.90
2013,09,23,03,51,10.90
2013,09,23,03,52,10.90
2013,09,23,03,53,10.90
2013,09,23,03,54,10.90
2013,09,23,03,55,10.90
2013,09,23,03,56,10.90
2013,09,23,03,57,10.90
2013,09,23,03,58,10.90
2013,09,23,03,59,10.90
2013,09,23,04,00,10.90
2013,09,23,04,01,10.90
2013,09,23,04,02,10.90
2013,09,23,04,03,11.00
2013,09,23,04,04,11.10
2013,09,23,04,05,11.00
2013,09,23,04,06,10.90
2013,09,23,04,07,10.90
2013,09,23,04,08,11.00
2013,09,23,04,09,11.10
2013,09,23,04,10,11.10
2013,09,23,04,11,11.10
2013,09,23,04,12,11.10
2013,09,23,04,13,11.10
2013,09,23,04,14,11.10
2013,09,23,04,15,11.10
2013,09,23,04,16,11.10
2013,09,23,04,17,11.20
2013,09,23,04,18,11.20
2013,09,23,04,19,11.20
2013,09,23,04,20,11.20
2013,09,23,04,21,11.20
2013,09,23,04,22,11.20
2013,09,23,04,23,11.30
2013,09,23,04,24,11.30
2013,09,23,04,25,11.30
2013,09,23,04,26,11.30
2013,09,23,04,27,11.40
2013,09,23,04,28,11.40
2013,09,23,04,29,11.40
2013,09,23,04,30,11.40
2013,09,23,04,31,11.40
2013,09,23,04,32,11.40
2013,09,23,04,33,11.40
2013,09,23,04,34,11.40
2013,09,23,04,35,11.40
2013,09,23,04,36,11.40
2013,09,23,04,37,11.40
2013,09,23,04,38,11.40
2013,09,23,04,39,11.40
2013,09,23,04,40,11.40
2013,09,23,04,41,11.40
2013,09,23,04,42,11.40
2013,09,23,04,43,11.40
2013,09,23,04,44,11.40
2013,09,23,04,45,11.40
2013,09,23,04,46,11.30
2013,09,23,04,47,11.30
2013,09,23,04,48,11.30
2013,09,23,04,49,11.30
2013,09,23,04,50,11.30
2013,09,23,04,51,11.30
2013,09,23,04,52,11.20
2013,09,23,04,53,11.20
2013,09,23,04,54,11.20
2013,09,23,04,55,11.20
2013,09,23,04,56,11.20
2013,09,23,04,57,11.20
2013,09,23,04,58,11.20
2013,09,23,04,59,11.20
2013,09,23,05,00,11.20
2013,09,23,05,01,11.10
2013,09,23,05,02,11.10
2013,09,23,05,03,11.10
2013,09,23,05,04,11.10
2013,09,23,05,05,11.10
2013,09,23,05,06,11.10
2013,09,23,05,07,11.10
2013,09,23,05,08,11.10
2013,09,23,05,09,11.10
2013,09,23,05,10,11.10
2013,09,23,05,11,11.10
2013,09,23,05,12,11.10
2013,09,23,05,13,11.10
2013,09,23,05,14,11.00
2013,09,23,05,15,10.90
2013,09,23,05,16,10.90
2013,09,23,05,17,10.90
2013,09,23,05,18,10.90
2013,09,23,05,19,10.90
2013,09,23,05,20,10.90
2013,09,23,05,21,10.90
2013,09,23,05,22,10.90
2013,09,23,05,23,10.90
2013,09,23,05,24,10.90
2013,09,23,05,25,10.90
2013,09,23,05,26,10.90
2013,09,23,05,27,10.90
2013,09,23,05,28,10.90
2013,09,23,05,29,10.80
2013,09,23,05,30,10.80
2013,09,23,05,31,10.80
2013,09,23,05,32,10.80
2013,09,23,05,33,10.80
2013,09,23,05,34,10.80
2013,09,23,05,35,10.80
2013,09,23,05,36,10.80
2013,09,23,05,37,10.80
2013,09,23,05,38,10.80
2013,09,23,05,39,10.80
2013,09,23,05,40,10.80
2013,09,23,05,41,10.80
2013,09,23,05,42,10.80
2013,09,23,05,43,10.80
2013,09,23,05,44,10.80
2013,09,23,05,45,10.80
2013,09,23,05,46,10.80
2013,09,23,05,47,10.70
2013,09,23,05,48,10.70
2013,09,23,05,49,10.70
2013,09,23,05,50,10.70
2013,09,23,05,51,10.70
2013,09,23,05,52,10.70
2013,09,23,05,53,10.70
2013,09,23,05,54,10.70
2013,09,23,05,55,10.60
2013,09,23,05,56,10.60
2013,09,23,05,57,10.60
2013,09,23,05,58,10.60
2013,09,23,05,59,10.60
2013,09,23,06,00,10.60
2013,09,23,06,01,10.60
2013,09,23,06,02,10.60
2013,09,23,06,03,10.40
2013,09,23,06,04,10.40
2013,09,23,06,05,10.40
2013,09,23,06,06,10.40
2013,09,23,06,07,10.40
2013,09,23,06,08,10.40
2013,09,23,06,09,10.40
2013,09,23,06,10,10.40
2013,09,23,06,11,10.40
2013,09,23,06,12,10.30
2013,09,23,06,13,10.30
2013,09,23,06,14,10.30
2013,09,23,06,15,10.30
2013,09,23,06,16,10.30
2013,09,23,06,17,10.30
2013,09,23,06,18,10.30
2013,09,23,06,19,10.30
2013,09,23,06,20,10.30
2013,09,23,06,21,10.20
2013,09,23,06,22,10.20
2013,09,23,06,23,10.20
2013,09,23,06,24,10.20
2013,09,23,06,25,10.20
2013,09,23,06,26,10.30
2013,09,23,06,27,10.30
2013,09,23,06,28,10.30
2013,09,23,06,29,10.30
2013,09,23,06,30,10.30
2013,09,23,06,31,10.40
2013,09,23,06,32,10.40
2013,09,23,06,33,10.40
2013,09,23,06,34,10.40
2013,09,23,06,35,10.40
2013,09,23,06,36,10.40
2013,09,23,06,37,10.40
2013,09,23,06,38,10.40
2013,09,23,06,39,10.40
2013,09,23,06,40,10.40
2013,09,23,06,41,10.40
2013,09,23,06,42,10.40
2013,09,23,06,43,10.50
2013,09,23,06,44,10.60
2013,09,23,06,45,10.60
2013,09,23,06,46,10.60
2013,09,23,06,47,10.60
2013,09,23,06,48,10.60
2013,09,23,06,49,10.60
2013,09,23,06,50,10.60
2013,09,23,06,51,10.60
2013,09,23,06,52,10.60
2013,09,23,06,53,10.60
2013,09,23,06,54,10.60
2013,09,23,06,55,10.60
2013,09,23,06,56,10.60
2013,09,23,06,57,10.60
2013,09,23,06,58,10.60
2013,09,23,06,59,10.60
2013,09,23,07,00,10.60
2013,09,23,07,01,10.60
2013,09,23,07,02,10.60
2013,09,23,07,03,10.60
2013,09,23,07,04,10.60
2013,09,23,07,05,10.60
2013,09,23,07,06,10.60
2013,09,23,07,07,10.60
2013,09,23,07,08,10.60
2013,09,23,07,09,10.60
2013,09,23,07,10,10.60
2013,09,23,07,11,10.60
2013,09,23,07,12,10.70
2013,09,23,07,13,10.70
2013,09,23,07,14,10.70
2013,09,23,07,15,10.70
2013,09,23,07,16,10.70
2013,09,23,07,17,10.70
2013,09,23,07,18,10.70
2013,09,23,07,19,10.70
2013,09,23,07,20,10.70
2013,09,23,07,21,10.70
2013,09,23,07,22,10.70
2013,09,23,07,23,10.70
2013,09,23,07,24,10.80
2013,09,23,07,25,10.80
2013,09,23,07,26,10.80
2013,09,23,07,27,10.80
2013,09,23,07,28,10.80
2013,09,23,07,29,10.80
2013,09,23,07,30,10.80
2013,09,23,07,31,10.80
2013,09,23,07,32,10.80
2013,09,23,07,33,10.80
2013,09,23,07,34,10.80
2013,09,23,07,35,10.80
2013,09,23,07,36,10.80
2013,09,23,07,37,10.80
2013,09,23,07,38,10.80
2013,09,23,07,39,10.80
2013,09,23,07,40,10.80
2013,09,23,07,41,10.80
2013,09,23,07,42,10.80
2013,09,23,07,43,10.80
2013,09,23,07,44,10.80
2013,09,23,07,45,10.80
2013,09,23,07,46,10.80
2013,09,23,07,47,10.80
2013,09,23,07,48,10.80
2013,09,23,07,49,10.80
2013,09,23,07,50,10.80
2013,09,23,07,51,10.80
2013,09,23,07,52,10.80
2013,09,23,07,53,10.80
2013,09,23,07,54,10.80
2013,09,23,07,55,10.80
2013,09,23,07,56,10.80
2013,09,23,07,57,10.80
2013,09,23,07,58,10.80
2013,09,23,07,59,10.80
2013,09,23,08,00,10.80
2013,09,23,08,01,10.80
2013,09,23,08,02,10.80
2013,09,23,08,03,10.80
2013,09,23,08,04,10.80
2013,09,23,08,05,10.80
2013,09,23,08,06,10.80
2013,09,23,08,07,10.80
2013,09,23,08,08,10.80
2013,09,23,08,09,10.80
2013,09,23,08,10,10.80
2013,09,23,08,11,10.80
2013,09,23,08,12,10.80
2013,09,23,08,13,10.80
2013,09,23,08,14,10.80
2013,09,23,08,15,10.80
2013,09,23,08,16,10.80
2013,09,23,08,17,10.80
2013,09,23,08,18,10.80
2013,09,23,08,19,10.80
2013,09,23,08,20,10.80
2013,09,23,08,21,10.80
2013,09,23,08,22,10.80
2013,09,23,08,23,10.80
2013,09,23,08,24,10.80
2013,09,23,08,25,10.80
2013,09,23,08,26,10.80
2013,09,23,08,27,10.80
2013,09,23,08,28,10.80
2013,09,23,08,29,10.80
2013,09,23,08,30,10.80
2013,09,23,08,31,10.80
2013,09,23,08,32,10.80
2013,09,23,08,33,10.80
2013,09,23,08,34,10.80
2013,09,23,08,35,10.90
2013,09,23,08,36,10.90
2013,09,23,08,37,10.90
2013,09,23,08,38,10.90
2013,09,23,08,39,10.90
2013,09,23,08,40,10.90
2013,09,23,08,41,10.90
2013,09,23,08,42,10.90
2013,09,23,08,43,10.90
2013,09,23,08,44,10.90
2013,09,23,08,45,10.90
2013,09,23,08,46,10.90
2013,09,23,08,47,10.90
2013,09,23,08,48,10.90
2013,09,23,08,49,10.90
2013,09,23,08,50,10.90
2013,09,23,08,51,10.90
2013,09,23,08,52,10.90
2013,09,23,08,53,11.00
2013,09,23,08,54,11.10
2013,09,23,08,55,11.10
2013,09,23,08,56,11.10
2013,09,23,08,57,11.10
2013,09,23,08,58,11.10
2013,09,23,08,59,11.10
2013,09,23,09,00,11.10
2013,09,23,09,01,11.10
2013,09,23,09,02,11.10
2013,09,23,09,03,11.10
2013,09,23,09,04,11.10
2013,09,23,09,05,11.10
2013,09,23,09,06,11.10
2013,09,23,09,07,11.10
2013,09,23,09,08,11.10
2013,09,23,09,09,11.10
2013,09,23,09,10,11.10
2013,09,23,09,11,11.10
2013,09,23,09,12,11.10
2013,09,23,09,13,11.10
2013,09,23,09,14,11.10
2013,09,23,09,15,11.20
2013,09,23,09,16,11.20
2013,09,23,09,17,11.20
2013,09,23,09,18,11.20
2013,09,23,09,19,11.20
2013,09,23,09,20,11.20
2013,09,23,09,21,11.10
2013,09,23,09,22,11.10
2013,09,23,09,23,11.10
2013,09,23,09,24,11.10
2013,09,23,09,25,11.10
2013,09,23,09,26,11.10
2013,09,23,09,27,11.10
2013,09,23,09,28,11.10
2013,09,23,09,29,11.10
2013,09,23,09,30,11.10
2013,09,23,09,31,11.10
2013,09,23,09,32,11.10
2013,09,23,09,33,11.10
2013,09,23,09,34,11.10
2013,09,23,09,35,11.10
2013,09,23,09,36,11.10
2013,09,23,09,37,11.10
2013,09,23,09,38,11.10
2013,09,23,09,39,11.10
2013,09,23,09,40,11.10
2013,09,23,09,41,11.10
2013,09,23,09,42,11.10
2013,09,23,09,43,11.10
2013,09,23,09,44,11.10
2013,09,23,09,45,11.10
2013,09,23,09,46,11.10
2013,09,23,09,47,11.10
2013,09,23,09,48,11.10
2013,09,23,09,49,11.10
2013,09,23,09,50,11.20
2013,09,23,09,51,11.20
2013,09,23,09,52,11.20
2013,09,23,09,53,11.20
2013,09,23,09,54,11.20
2013,09,23,09,55,11.20
2013,09,23,09,56,11.20
2013,09,23,09,57,11.20
2013,09,23,09,58,11.30
2013,09,23,09,59,11.30
2013,09,23,10,00,11.30
2013,09,23,10,01,11.30
2013,09,23,10,02,11.30
2013,09,23,10,03,11.40
2013,09,23,10,04,11.40
2013,09,23,10,05,11.40
2013,09,23,10,06,11.40
2013,09,23,10,07,11.40
2013,09,23,10,08,11.40
2013,09,23,10,09,11.40
2013,09,23,10,10,11.40
2013,09,23,10,11,11.40
2013,09,23,10,12,11.40
2013,09,23,10,13,11.40
2013,09,23,10,14,11.50
2013,09,23,10,15,11.60
2013,09,23,10,16,11.60
2013,09,23,10,17,11.60
2013,09,23,10,18,11.60
2013,09,23,10,19,11.60
2013,09,23,10,20,11.60
2013,09,23,10,21,11.60
2013,09,23,10,22,11.70
2013,09,23,10,23,11.70
2013,09,23,10,24,11.80
2013,09,23,10,25,11.80
2013,09,23,10,26,11.80
2013,09,23,10,27,11.80
2013,09,23,10,28,11.80
2013,09,23,10,29,11.80
2013,09,23,10,30,11.80
2013,09,23,10,31,11.90
2013,09,23,10,32,11.90
2013,09,23,10,33,11.90
2013,09,23,10,34,11.90
2013,09,23,10,35,11.90
2013,09,23,10,36,12.00
2013,09,23,10,37,12.00
2013,09,23,10,38,12.00
2013,09,23,10,39,12.00
2013,09,23,10,40,12.10
2013,09,23,10,41,12.10
2013,09,23,10,42,12.10
2013,09,23,10,43,12.10
2013,09,23,10,44,12.10
2013,09,23,10,45,12.20
2013,09,23,10,46,12.20
2013,09,23,10,47,12.20
2013,09,23,10,48,12.30
2013,09,23,10,49,12.30
2013,09,23,10,50,12.30
2013,09,23,10,51,12.30
2013,09,23,10,52,12.30
2013,09,23,10,53,12.40
2013,09,23,10,54,12.40
2013,09,23,10,55,12.50
2013,09,23,10,56,12.50
2013,09,23,10,57,12.50
2013,09,23,10,58,12.50
2013,09,23,10,59,12.50
2013,09,23,11,00,12.50
2013,09,23,11,01,12.40
2013,09,23,11,02,12.40
2013,09,23,11,03,12.40
2013,09,23,11,04,12.40
2013,09,23,11,05,12.50
2013,09,23,11,06,12.50
2013,09,23,11,07,12.50
2013,09,23,11,08,12.60
2013,09,23,11,09,12.60
2013,09,23,11,10,12.50
2013,09,23,11,11,12.50
2013,09,23,11,12,12.50
2013,09,23,11,13,12.50
2013,09,23,11,14,12.50
2013,09,23,11,15,12.50
2013,09,23,11,16,12.40
2013,09,23,11,17,12.50
2013,09,23,11,18,12.50
2013,09,23,11,19,12.40
2013,09,23,11,20,12.40
2013,09,23,11,21,12.50
2013,09,23,11,22,12.50
2013,09,23,11,23,12.50
2013,09,23,11,24,12.50
2013,09,23,11,25,12.50
2013,09,23,11,26,12.50
2013,09,23,11,27,12.60
2013,09,23,11,28,12.60
2013,09,23,11,29,12.70
2013,09,23,11,30,12.80
2013,09,23,11,31,12.80
2013,09,23,11,32,12.80
2013,09,23,11,33,12.90
2013,09,23,11,34,12.90
2013,09,23,11,35,13.00
2013,09,23,11,36,13.00
2013,09,23,11,37,13.10
2013,09,23,11,38,13.10
2013,09,23,11,39,13.10
2013,09,23,11,40,13.10
2013,09,23,11,41,13.10
2013,09,23,11,42,13.10
2013,09,23,11,43,13.00
2013,09,23,11,44,12.90
2013,09,23,11,45,12.90
2013,09,23,11,46,12.90
2013,09,23,11,47,12.90
2013,09,23,11,48,12.90
2013,09,23,11,49,12.90
2013,09,23,11,50,12.90
2013,09,23,11,51,12.90
2013,09,23,11,52,12.90
2013,09,23,11,53,13.00
2013,09,23,11,54,13.00
2013,09,23,11,55,13.00
2013,09,23,11,56,13.00
2013,09,23,11,57,13.00
2013,09,23,11,58,13.10
2013,09,23,11,59,13.10
2013,09,23,12,00,13.20
2013,09,23,12,01,13.20
2013,09,23,12,02,13.20
2013,09,23,12,03,13.20
2013,09,23,12,04,13.20
2013,09,23,12,05,13.30
2013,09,23,12,06,13.30
2013,09,23,12,07,13.30
2013,09,23,12,08,13.30
2013,09,23,12,09,13.30
2013,09,23,12,10,13.30
2013,09,23,12,11,13.30
2013,09,23,12,12,13.30
2013,09,23,12,13,13.30
2013,09,23,12,14,13.30
2013,09,23,12,15,13.40
2013,09,23,12,16,13.40
2013,09,23,12,17,13.40
2013,09,23,12,18,13.30
2013,09,23,12,19,13.40
2013,09,23,12,20,13.30
2013,09,23,12,21,13.30
2013,09,23,12,22,13.30
2013,09,23,12,23,13.30
2013,09,23,12,24,13.30
2013,09,23,12,25,13.30
2013,09,23,12,26,13.30
2013,09,23,12,27,13.30
2013,09,23,12,28,13.40
2013,09,23,12,29,13.40
2013,09,23,12,30,13.50
2013,09,23,12,31,13.50
2013,09,23,12,32,13.50
2013,09,23,12,33,13.60
2013,09,23,12,34,13.60
2013,09,23,12,35,13.60
2013,09,23,12,36,13.70
2013,09,23,12,37,13.70
2013,09,23,12,38,13.60
2013,09,23,12,39,13.60
2013,09,23,12,40,13.60
2013,09,23,12,41,13.70
2013,09,23,12,42,13.70
2013,09,23,12,43,13.70
2013,09,23,12,44,13.70
2013,09,23,12,45,13.70
2013,09,23,12,46,13.70
2013,09,23,12,47,13.70
2013,09,23,12,48,13.60
2013,09,23,12,49,13.60
2013,09,23,12,50,13.50
2013,09,23,12,51,13.50
2013,09,23,12,52,13.50
2013,09,23,12,53,13.50
2013,09,23,12,54,13.50
2013,09,23,12,55,13.50
2013,09,23,12,56,13.50
2013,09,23,12,57,13.40
2013,09,23,12,58,13.40
2013,09,23,12,59,13.30
2013,09,23,13,00,13.30
2013,09,23,13,01,13.30
2013,09,23,13,02,13.40
2013,09,23,13,03,13.40
2013,09,23,13,04,13.50
2013,09,23,13,05,13.50
2013,09,23,13,06,13.40
2013,09,23,13,07,13.30
2013,09,23,13,08,13.30
2013,09,23,13,09,13.30
2013,09,23,13,10,13.30
2013,09,23,13,11,13.30
2013,09,23,13,12,13.20
2013,09,23,13,13,13.20
2013,09,23,13,14,13.20
2013,09,23,13,15,13.10
2013,09,23,13,16,13.10
2013,09,23,13,17,13.00
2013,09,23,13,18,12.90
2013,09,23,13,19,12.90
2013,09,23,13,20,12.90
2013,09,23,13,21,12.90
2013,09,23,13,22,12.90
2013,09,23,13,23,12.90
2013,09,23,13,24,12.80
2013,09,23,13,25,12.80
2013,09,23,13,26,12.80
2013,09,23,13,27,12.80
2013,09,23,13,28,12.80
2013,09,23,13,29,12.80
2013,09,23,13,30,12.80
2013,09,23,13,31,12.80
2013,09,23,13,32,12.90
2013,09,23,13,33,12.90
2013,09,23,13,34,12.90
2013,09,23,13,35,13.00
2013,09,23,13,36,13.00
2013,09,23,13,37,13.00
2013,09,23,13,38,13.00
2013,09,23,13,39,13.10
2013,09,23,13,40,13.00
2013,09,23,13,41,12.90
2013,09,23,13,42,13.00
2013,09,23,13,43,13.00
2013,09,23,13,44,13.00
2013,09,23,13,45,12.90
2013,09,23,13,46,12.90
2013,09,23,13,47,12.90
2013,09,23,13,48,13.00
2013,09,23,13,49,13.00
2013,09,23,13,50,13.00
2013,09,23,13,51,13.10
2013,09,23,13,52,13.10
2013,09,23,13,53,13.10
2013,09,23,13,54,13.20
2013,09,23,13,55,13.20
2013,09,23,13,56,13.20
2013,09,23,13,57,13.30
2013,09,23,13,58,13.30
2013,09,23,13,59,13.30
2013,09,23,14,00,13.30
2013,09,23,14,01,13.30
2013,09,23,14,02,13.40
2013,09,23,14,03,13.40
2013,09,23,14,04,13.50
2013,09,23,14,05,13.50
2013,09,23,14,06,13.50
2013,09,23,14,07,13.50
2013,09,23,14,08,13.60
2013,09,23,14,09,13.60
2013,09,23,14,10,13.60
2013,09,23,14,11,13.70
2013,09,23,14,12,13.70
2013,09,23,14,13,13.70
2013,09,23,14,14,13.70
2013,09,23,14,15,13.80
2013,09,23,14,16,13.80
2013,09,23,14,17,13.80
2013,09,23,14,18,13.80
2013,09,23,14,19,13.80
2013,09,23,14,20,13.80
2013,09,23,14,21,13.80
2013,09,23,14,22,13.80
2013,09,23,14,23,13.80
2013,09,23,14,24,13.80
2013,09,23,14,25,13.90
2013,09,23,14,26,13.90
2013,09,23,14,27,13.90
2013,09,23,14,28,14.00
2013,09,23,14,29,14.00
2013,09,23,14,30,14.00
2013,09,23,14,31,14.00
2013,09,23,14,32,14.00
2013,09,23,14,33,14.10
2013,09,23,14,34,14.10
2013,09,23,14,35,14.20
2013,09,23,14,36,14.20
2013,09,23,14,37,14.30
2013,09,23,14,38,14.30
2013,09,23,14,39,14.30
2013,09,23,14,40,14.30
2013,09,23,14,41,14.30
2013,09,23,14,42,14.40
2013,09,23,14,43,14.50
2013,09,23,14,44,14.70
2013,09,23,14,45,14.80
2013,09,23,14,46,14.90
2013,09,23,14,47,15.00
2013,09,23,14,48,15.00
2013,09,23,14,49,15.00
2013,09,23,14,50,15.10
2013,09,23,14,51,15.20
2013,09,23,14,52,15.20
2013,09,23,14,53,15.30
2013,09,23,14,54,15.30
2013,09,23,14,55,15.40
2013,09,23,14,56,15.50
2013,09,23,14,57,15.50
2013,09,23,14,58,15.50
2013,09,23,14,59,15.50
2013,09,23,15,00,15.50
2013,09,23,15,01,15.60
2013,09,23,15,02,15.60
2013,09,23,15,03,15.50
2013,09,23,15,04,15.50
2013,09,23,15,05,15.40
2013,09,23,15,06,15.30
2013,09,23,15,07,15.30
2013,09,23,15,08,15.20
2013,09,23,15,09,15.20
2013,09,23,15,10,15.20
2013,09,23,15,11,15.20
2013,09,23,15,12,15.20
2013,09,23,15,13,15.30
2013,09,23,15,14,15.30
2013,09,23,15,15,15.40
2013,09,23,15,16,15.50
2013,09,23,15,17,15.60
2013,09,23,15,18,15.80
2013,09,23,15,19,15.80
2013,09,23,15,20,16.00
2013,09,23,15,21,16.00
2013,09,23,15,22,15.90
2013,09,23,15,23,15.90
2013,09,23,15,24,15.90
2013,09,23,15,25,16.00
2013,09,23,15,26,16.10
2013,09,23,15,27,16.10
2013,09,23,15,28,16.10
2013,09,23,15,29,16.10
2013,09,23,15,30,16.10
2013,09,23,15,31,16.10
2013,09,23,15,32,16.10
2013,09,23,15,33,16.20
2013,09,23,15,34,16.20
2013,09,23,15,35,16.10
2013,09,23,15,36,16.00
2013,09,23,15,37,15.90
2013,09,23,15,38,15.90
2013,09,23,15,39,15.90
2013,09,23,15,40,16.10
2013,09,23,15,41,16.10
2013,09,23,15,42,16.10
2013,09,23,15,43,16.10
2013,09,23,15,44,16.10
2013,09,23,15,45,16.10
2013,09,23,15,46,16.10
2013,09,23,15,47,16.10
2013,09,23,15,48,16.10
2013,09,23,15,49,16.10
2013,09,23,15,50,16.10
2013,09,23,15,51,16.10
2013,09,23,15,52,16.10
2013,09,23,15,53,16.10
2013,09,23,15,54,16.10
2013,09,23,15,55,16.10
2013,09,23,15,56,16.10
2013,09,23,15,57,16.10
2013,09,23,15,58,16.10
2013,09,23,15,59,16.10
2013,09,23,16,00,16.20
2013,09,23,16,01,16.20
2013,09,23,16,02,16.20
2013,09,23,16,03,16.20
2013,09,23,16,04,16.20
2013,09,23,16,05,16.20
2013,09,23,16,06,16.20
2013,09,23,16,07,16.30
2013,09,23,16,08,16.30
2013,09,23,16,09,16.30
2013,09,23,16,10,16.40
2013,09,23,16,11,16.40
2013,09,23,16,12,16.40
2013,09,23,16,13,16.40
2013,09,23,16,14,16.40
2013,09,23,16,15,16.40
2013,09,23,16,16,16.40
2013,09,23,16,17,16.30
2013,09,23,16,18,16.30
2013,09,23,16,19,16.30
2013,09,23,16,20,16.30
2013,09,23,16,21,16.30
2013,09,23,16,22,16.20
2013,09,23,16,23,16.20
2013,09,23,16,24,16.20
2013,09,23,16,25,16.30
2013,09,23,16,26,16.30
2013,09,23,16,27,16.30
2013,09,23,16,28,16.30
2013,09,23,16,29,16.40
2013,09,23,16,30,16.40
2013,09,23,16,31,16.40
2013,09,23,16,32,16.40
2013,09,23,16,33,16.40
2013,09,23,16,34,16.60
2013,09,23,16,35,16.60
2013,09,23,16,36,16.70
2013,09,23,16,37,16.70
2013,09,23,16,38,16.70
2013,09,23,16,39,16.80
2013,09,23,16,40,16.80
2013,09,23,16,41,16.70
2013,09,23,16,42,16.70
2013,09,23,16,43,16.70
2013,09,23,16,44,16.70
2013,09,23,16,45,16.70
2013,09,23,16,46,16.70
2013,09,23,16,47,16.70
2013,09,23,16,48,16.70
2013,09,23,16,49,16.70
2013,09,23,16,50,16.80
2013,09,23,16,51,16.80
2013,09,23,16,52,16.80
2013,09,23,16,53,16.80
2013,09,23,16,54,16.80
2013,09,23,16,55,16.80
2013,09,23,16,56,16.80
2013,09,23,16,57,16.80
2013,09,23,16,58,16.70
2013,09,23,16,59,16.70
2013,09,23,17,00,16.70
2013,09,23,17,01,16.70
2013,09,23,17,02,16.70
2013,09,23,17,03,16.70
2013,09,23,17,04,16.70
2013,09,23,17,05,16.70
2013,09,23,17,06,16.70
2013,09,23,17,07,16.70
2013,09,23,17,08,16.70
2013,09,23,17,09,16.70
2013,09,23,17,10,16.70
2013,09,23,17,11,16.60
2013,09,23,17,12,16.60
2013,09,23,17,13,16.70
2013,09,23,17,14,16.60
2013,09,23,17,15,16.60
2013,09,23,17,16,16.60
2013,09,23,17,17,16.50
2013,09,23,17,18,16.40
2013,09,23,17,19,16.40